EUTELSAT 7B

Last updated on Sun Dec 14 2025 00:02:50 GMT+0000 (Coordinated Universal Time)

1 39163U 13022A 25347.20510167 .00000062 00000+0 00000+0 0 9999 2 39163 0.0744 22.0516 0004646 296.2554 204.6691 1.00273243 46097
UTC large
Height (km)
Speed (km/s)
/
Latitude / Longitude
Inclination (degrees)
Orbital Period (minutes)
Azimuth
Elevation
Range (km)
Doppler Factor

Next 0 passes for location: London (51.5072 / 0.1276)

Sorry there are no passes over London.